GEC28U ESGG-EDDH

Flight info

Callsign GEC28U
Flight time N/A
Altitude 34000
Route VADIN DCT ALASA/N0472F350 M852 EKERN T905 BOGMU BOGMU3N
Aircraft B77L/H-SDE1E2E3FGHIJ2J3J4J5M1RWXY/LB1D1

Departure

Time 2026-05-07 09:52
Airport Göteborg Landvetter Airport (ESGG)

Arrival

Time N/A
Airport Hamburg Helmut Schmidt Airport (EDDH)
Time Latitude Longitude Altitude Speed Heading
2026-05-07 09:28 57.67244 12.29714 539 ft 0 kts 116°
2026-05-07 09:40 57.67247 12.29701 536 ft 4 kts 120°
2026-05-07 09:40 57.67263 12.29661 540 ft 4 kts 142°
2026-05-07 09:41 57.67285 12.29641 539 ft 4 kts 180°
2026-05-07 09:41 57.67300 12.29645 539 ft 1 kts 207°
2026-05-07 09:44 57.67287 12.29632 541 ft 8 kts 207°
2026-05-07 09:44 57.67233 12.29581 535 ft 8 kts 207°
2026-05-07 09:44 57.67213 12.29489 535 ft 8 kts 282°
2026-05-07 09:44 57.67236 12.29392 535 ft 8 kts 294°
2026-05-07 09:45 57.67260 12.29294 535 ft 8 kts 291°
2026-05-07 09:45 57.67238 12.29202 535 ft 8 kts 218°
2026-05-07 09:45 57.67186 12.29149 534 ft 9 kts 207°
2026-05-07 09:45 57.67130 12.29097 534 ft 9 kts 206°
2026-05-07 09:46 57.67073 12.29045 533 ft 9 kts 206°
2026-05-07 09:46 57.67016 12.28994 532 ft 9 kts 206°
2026-05-07 09:46 57.66960 12.28942 532 ft 9 kts 206°
2026-05-07 09:46 57.66902 12.28891 531 ft 9 kts 206°
2026-05-07 09:47 57.66844 12.28839 530 ft 10 kts 205°
2026-05-07 09:47 57.66762 12.28763 529 ft 17 kts 207°
2026-05-07 09:47 57.66633 12.28644 528 ft 22 kts 205°
2026-05-07 09:47 57.66493 12.28520 527 ft 22 kts 205°
2026-05-07 09:48 57.66356 12.28396 525 ft 22 kts 206°
2026-05-07 09:48 57.66216 12.28265 524 ft 22 kts 206°
2026-05-07 09:48 57.66079 12.28140 522 ft 22 kts 206°
2026-05-07 09:48 57.65939 12.28015 521 ft 22 kts 207°
2026-05-07 09:49 57.65801 12.27887 520 ft 22 kts 205°
2026-05-07 09:49 57.65662 12.27763 518 ft 22 kts 205°
2026-05-07 09:49 57.65524 12.27633 518 ft 22 kts 206°
2026-05-07 09:49 57.65386 12.27504 516 ft 22 kts 207°
2026-05-07 09:50 57.65248 12.27375 515 ft 22 kts 206°
2026-05-07 09:50 57.65109 12.27250 513 ft 22 kts 206°
2026-05-07 09:50 57.64972 12.27124 512 ft 20 kts 206°
2026-05-07 09:50 57.64884 12.27022 510 ft 13 kts 237°
2026-05-07 09:51 57.64910 12.26878 510 ft 13 kts 322°
2026-05-07 09:51 57.64971 12.26808 511 ft 9 kts 345°
2026-05-07 09:51 57.65099 12.26898 514 ft 40 kts 26°
2026-05-07 09:51 57.65577 12.27333 516 ft 110 kts 26°
2026-05-07 09:52 57.66444 12.28117 527 ft 163 kts 25°
2026-05-07 09:52 57.67530 12.29101 895 ft 171 kts 22°
2026-05-07 09:52 57.68591 12.30032 1639 ft 167 kts 22°
2026-05-07 09:52 57.69628 12.31101 2170 ft 177 kts 38°
2026-05-07 09:53 57.70346 12.33027 2524 ft 193 kts 76°
2026-05-07 09:53 57.70148 12.35584 2789 ft 214 kts 120°
2026-05-07 09:53 57.69355 12.37945 3227 ft 223 kts 116°
2026-05-07 09:53 57.68704 12.40672 3660 ft 238 kts 110°
2026-05-07 09:54 57.67963 12.43552 3923 ft 259 kts 128°
2026-05-07 09:54 57.66454 12.45455 4462 ft 270 kts 166°
2026-05-07 09:54 57.64594 12.45509 5304 ft 270 kts 197°
2026-05-07 09:54 57.62941 12.43916 6147 ft 268 kts 219°
2026-05-07 09:55 57.61504 12.41677 6937 ft 270 kts 222°
2026-05-07 09:55 57.60092 12.39340 7795 ft 271 kts 224°
2026-05-07 09:55 57.58683 12.36985 8676 ft 271 kts 224°
2026-05-07 09:55 57.57269 12.34623 9470 ft 276 kts 223°
2026-05-07 09:56 57.55827 12.32219 10213 ft 279 kts 223°
2026-05-07 09:56 57.54347 12.29762 10671 ft 294 kts 223°
2026-05-07 09:56 57.52763 12.27122 10974 ft 316 kts 224°
2026-05-07 09:56 57.51078 12.24321 11376 ft 334 kts 223°
2026-05-07 09:57 57.49288 12.21358 11752 ft 354 kts 223°
2026-05-07 09:57 57.47409 12.18281 12447 ft 365 kts 223°
2026-05-07 09:57 57.45475 12.15168 13314 ft 371 kts 223°
2026-05-07 09:57 57.43532 12.12057 14199 ft 375 kts 223°
2026-05-07 09:58 57.41551 12.08872 15059 ft 378 kts 223°
2026-05-07 09:58 57.39558 12.05658 15886 ft 382 kts 223°
2026-05-07 09:58 57.37539 12.02400 16680 ft 387 kts 223°
2026-05-07 09:58 57.35496 11.99106 17482 ft 392 kts 223°
2026-05-07 09:59 57.33421 11.95766 18223 ft 397 kts 223°
2026-05-07 09:59 57.31326 11.92397 18914 ft 402 kts 223°
2026-05-07 09:59 57.29209 11.89000 19611 ft 405 kts 223°
2026-05-07 09:59 57.27073 11.85577 20321 ft 408 kts 223°
2026-05-07 10:00 57.24917 11.82127 21003 ft 411 kts 223°
2026-05-07 10:00 57.22742 11.78652 21661 ft 415 kts 223°
2026-05-07 10:00 57.20550 11.75153 22313 ft 419 kts 223°
2026-05-07 10:00 57.18332 11.71621 22965 ft 423 kts 224°
2026-05-07 10:01 57.16080 11.68096 23605 ft 427 kts 221°
2026-05-07 10:01 57.13624 11.64938 24134 ft 434 kts 214°
2026-05-07 10:01 57.10972 11.62198 24643 ft 440 kts 209°
2026-05-07 10:01 57.08192 11.59954 25147 ft 445 kts 205°
2026-05-07 10:02 57.05315 11.57781 25630 ft 449 kts 205°
2026-05-07 10:02 57.02415 11.55598 26119 ft 453 kts 205°
2026-05-07 10:02 56.99489 11.53392 26622 ft 456 kts 205°
2026-05-07 10:02 56.96536 11.51159 27098 ft 460 kts 206°
2026-05-07 10:03 56.93565 11.48906 27565 ft 464 kts 206°
2026-05-07 10:03 56.90576 11.46637 28034 ft 467 kts 206°
2026-05-07 10:03 56.87560 11.44346 28484 ft 471 kts 206°
2026-05-07 10:03 56.84519 11.42038 28873 ft 475 kts 205°
2026-05-07 10:04 56.81439 11.39703 29210 ft 480 kts 205°
2026-05-07 10:04 56.78342 11.37360 29598 ft 484 kts 205°
2026-05-07 10:04 56.75232 11.35014 30136 ft 483 kts 205°
2026-05-07 10:04 56.72129 11.32679 30670 ft 481 kts 205°
2026-05-07 10:05 56.69040 11.30359 31168 ft 480 kts 205°
2026-05-07 10:05 56.65990 11.28070 31625 ft 480 kts 205°
2026-05-07 10:05 56.62900 11.25755 32051 ft 480 kts 205°
2026-05-07 10:05 56.59803 11.23439 32468 ft 480 kts 205°
2026-05-07 10:06 56.56708 11.21126 32786 ft 482 kts 205°
2026-05-07 10:06 56.53606 11.18813 33193 ft 482 kts 205°
2026-05-07 10:06 56.50505 11.16505 33647 ft 481 kts 205°
2026-05-07 10:06 56.47409 11.14207 34075 ft 480 kts 205°
2026-05-07 10:07 56.44302 11.11903 34094 ft 485 kts 205°
2026-05-07 10:07 56.38099 11.07315 34094 ft 482 kts 205°
2026-05-07 10:08 56.31924 11.02768 34091 ft 479 kts 204°
2026-05-07 10:08 56.25739 10.98225 34101 ft 480 kts 204°
2026-05-07 10:09 56.19542 10.93690 34099 ft 481 kts 204°
2026-05-07 10:09 56.13332 10.89161 34097 ft 482 kts 204°
2026-05-07 10:10 56.07111 10.84641 34085 ft 482 kts 204°
2026-05-07 10:10 56.00892 10.80138 34101 ft 482 kts 204°
2026-05-07 10:11 55.94673 10.75651 34098 ft 482 kts 204°
2026-05-07 10:11 55.88481 10.71198 34097 ft 482 kts 204°
2026-05-07 10:12 55.82264 10.66743 34100 ft 481 kts 204°
2026-05-07 10:12 55.76057 10.62310 34099 ft 480 kts 204°
2026-05-07 10:13 55.69901 10.57929 34094 ft 479 kts 203°
2026-05-07 10:13 55.63718 10.53544 34094 ft 478 kts 203°
2026-05-07 10:14 55.57540 10.49177 34095 ft 478 kts 203°
2026-05-07 10:14 55.51359 10.44823 34104 ft 478 kts 203°
2026-05-07 10:15 55.45170 10.40477 34097 ft 479 kts 203°
2026-05-07 10:15 55.38976 10.36143 34105 ft 479 kts 203°
2026-05-07 10:16 55.32816 10.31847 34108 ft 478 kts 203°
2026-05-07 10:16 55.29712 10.29688 33645 ft 485 kts 203°
2026-05-07 10:16 55.26565 10.27501 33054 ft 483 kts 203°
2026-05-07 10:16 55.23458 10.25349 32516 ft 477 kts 203°
2026-05-07 10:17 55.20383 10.23222 32003 ft 473 kts 203°
2026-05-07 10:17 55.18358 10.21823 31665 ft 472 kts 203°
2026-05-07 10:17 55.14316 10.19034 31003 ft 470 kts 202°
2026-05-07 10:17 55.11276 10.16939 30506 ft 469 kts 202°
2026-05-07 10:18 55.09267 10.15557 30159 ft 468 kts 202°
2026-05-07 10:18 55.06238 10.13477 29580 ft 467 kts 202°
2026-05-07 10:18 55.03214 10.11403 29051 ft 465 kts 202°
2026-05-07 10:18 55.00216 10.09351 28529 ft 462 kts 202°
2026-05-07 10:19 54.97226 10.07307 28022 ft 459 kts 202°
2026-05-07 10:19 54.94268 10.05288 27497 ft 453 kts 202°
2026-05-07 10:19 54.91349 10.03299 27003 ft 447 kts 202°
2026-05-07 10:19 54.88469 10.01338 26519 ft 442 kts 202°
2026-05-07 10:20 54.85619 9.99401 26022 ft 437 kts 202°
2026-05-07 10:20 54.82801 9.97496 25543 ft 431 kts 202°
2026-05-07 10:20 54.79965 9.95884 25087 ft 427 kts 196°
2026-05-07 10:20 54.77104 9.94849 24638 ft 423 kts 191°
2026-05-07 10:21 54.74212 9.93977 24191 ft 419 kts 192°
2026-05-07 10:21 54.71357 9.93078 23741 ft 415 kts 192°
2026-05-07 10:21 54.68532 9.92162 23224 ft 411 kts 192°
2026-05-07 10:21 54.65736 9.91249 22743 ft 407 kts 192°
2026-05-07 10:22 54.62960 9.90348 22289 ft 403 kts 192°
2026-05-07 10:22 54.60220 9.89471 21846 ft 398 kts 192°
2026-05-07 10:22 54.57511 9.88605 21424 ft 394 kts 192°
2026-05-07 10:22 54.54839 9.87669 21048 ft 389 kts 194°
2026-05-07 10:23 54.52246 9.86600 20827 ft 384 kts 195°
2026-05-07 10:23 54.49665 9.85477 20597 ft 380 kts 195°
2026-05-07 10:23 54.47113 9.84358 20320 ft 378 kts 195°
2026-05-07 10:23 54.44570 9.83249 19998 ft 377 kts 195°
2026-05-07 10:24 54.42027 9.82152 19671 ft 376 kts 195°
2026-05-07 10:24 54.39487 9.81065 19372 ft 374 kts 195°
2026-05-07 10:24 54.36955 9.79989 18962 ft 379 kts 195°
2026-05-07 10:24 54.34364 9.78893 18707 ft 392 kts 195°
2026-05-07 10:25 54.31700 9.77771 18487 ft 395 kts 195°
2026-05-07 10:25 54.29029 9.76649 18231 ft 396 kts 195°
2026-05-07 10:25 54.26339 9.75522 17954 ft 396 kts 195°
2026-05-07 10:25 54.23665 9.74403 17680 ft 395 kts 195°
2026-05-07 10:26 54.20996 9.73288 17407 ft 395 kts 195°
2026-05-07 10:26 54.18329 9.72174 17147 ft 393 kts 195°
2026-05-07 10:26 54.15674 9.71067 16876 ft 392 kts 195°
2026-05-07 10:26 54.13026 9.69965 16591 ft 391 kts 195°
2026-05-07 10:27 54.10389 9.68870 16326 ft 389 kts 195°
2026-05-07 10:27 54.07764 9.67778 16081 ft 387 kts 195°
2026-05-07 10:27 54.05153 9.66695 15815 ft 385 kts 194°
2026-05-07 10:27 54.02553 9.65619 15557 ft 384 kts 195°
2026-05-07 10:28 53.99971 9.64551 15364 ft 379 kts 195°
2026-05-07 10:28 53.97427 9.63501 15082 ft 373 kts 194°
2026-05-07 10:28 53.94926 9.62470 14684 ft 368 kts 194°
2026-05-07 10:28 53.92464 9.61456 14161 ft 368 kts 194°
2026-05-07 10:29 53.89976 9.60431 13595 ft 368 kts 194°
2026-05-07 10:29 53.87497 9.59408 13072 ft 365 kts 194°
2026-05-07 10:29 53.85031 9.58394 12568 ft 363 kts 194°
2026-05-07 10:30 53.80139 9.56390 11558 ft 360 kts 194°
2026-05-07 10:30 53.77716 9.55396 11107 ft 357 kts 194°
2026-05-07 10:30 53.75351 9.54431 10856 ft 348 kts 193°
2026-05-07 10:30 53.73044 9.53491 10779 ft 334 kts 194°
2026-05-07 10:31 53.70822 9.52585 10679 ft 322 kts 194°
2026-05-07 10:31 53.68677 9.51710 10563 ft 310 kts 194°
2026-05-07 10:31 53.66614 9.50869 10414 ft 300 kts 193°
2026-05-07 10:31 53.64617 9.50056 10248 ft 290 kts 193°
2026-05-07 10:32 53.62672 9.49265 9926 ft 287 kts 193°
2026-05-07 10:32 53.60768 9.48494 9623 ft 283 kts 193°
2026-05-07 10:32 53.58841 9.47712 9096 ft 286 kts 192°
2026-05-07 10:32 53.56894 9.46923 8601 ft 288 kts 192°
2026-05-07 10:33 53.54966 9.46195 8044 ft 279 kts 184°
2026-05-07 10:33 53.53094 9.46469 7477 ft 265 kts 155°
2026-05-07 10:33 53.51561 9.48031 6977 ft 255 kts 137°
2026-05-07 10:33 53.50230 9.49981 6474 ft 252 kts 134°
2026-05-07 10:34 53.48949 9.51946 5922 ft 247 kts 134°
2026-05-07 10:34 53.47792 9.54005 5423 ft 236 kts 117°
2026-05-07 10:34 53.47360 9.56523 5047 ft 221 kts 88°
2026-05-07 10:34 53.47463 9.59068 4752 ft 220 kts 84°
2026-05-07 10:35 53.47605 9.61628 4451 ft 226 kts 84°
2026-05-07 10:35 53.47759 9.64274 4112 ft 227 kts 84°
2026-05-07 10:35 53.47998 9.66846 3748 ft 220 kts 71°
2026-05-07 10:35 53.48600 9.69183 3492 ft 214 kts 64°
2026-05-07 10:36 53.49349 9.71267 3245 ft 206 kts 56°
2026-05-07 10:36 53.50218 9.73109 2944 ft 201 kts 52°
2026-05-07 10:36 53.51092 9.74849 2811 ft 186 kts 51°
2026-05-07 10:36 53.51945 9.76458 2559 ft 185 kts 50°
2026-05-07 10:37 53.52764 9.78041 2569 ft 179 kts 51°
2026-05-07 10:37 53.53586 9.79654 2458 ft 180 kts 51°
2026-05-07 10:37 53.54371 9.81290 2296 ft 183 kts 53°
2026-05-07 10:37 53.55147 9.82962 2058 ft 178 kts 53°
2026-05-07 10:38 53.55880 9.84524 1777 ft 161 kts 52°
2026-05-07 10:38 53.56577 9.85861 1537 ft 142 kts 50°
2026-05-07 10:38 53.57218 9.87059 1341 ft 142 kts 52°
2026-05-07 10:38 53.57825 9.88301 1235 ft 134 kts 53°
2026-05-07 10:39 53.58429 9.89552 1123 ft 139 kts 53°
2026-05-07 10:39 53.59046 9.90787 1013 ft 137 kts 51°
2026-05-07 10:39 53.59670 9.92014 807 ft 138 kts 52°
2026-05-07 10:39 53.60281 9.93241 609 ft 141 kts 53°
2026-05-07 10:40 53.60913 9.94518 429 ft 142 kts 52°
2026-05-07 10:40 53.61540 9.95779 245 ft 139 kts 53°
2026-05-07 10:40 53.62154 9.97029 50 ft 137 kts 53°
2026-05-07 10:40 53.62698 9.98132 49 ft 100 kts 50°
2026-05-07 10:41 53.62934 9.98619 48 ft 53 kts 51°